User: anonymous   Login
Location: Unspecified
(0.0000°N, 0.0000°E)
Time: 10:24:01
(UTC+00:00)
Language:

BUGSAT 1 - Orbit

View from above orbital plane
View from above orbital plane
View from above satellite
View from above satellite

Ground track
Ground track

The orbit data is extracted from the following two-line orbital elements,

1 40014U 14033E   19145.81919618  .00000833  00000-0  80548-4 0  9996
2 40014  98.0142  92.8302 0032616 137.4408 222.9354 14.95266498268933
Epoch (UTC): 25 May 2019 19:39:38
Eccentricity: 0.0032616
inclination: 98.0142°
perigee height: 559 km
apogee height: 604 km
right ascension of ascending node: 92.8302°
argument of perigee: 137.4408°
revolutions per day: 14.95266498
mean anomaly at epoch: 222.9354°
orbit number at epoch: 26893

The dashed part of the orbit path shows where the satellite is in the earth's shadow,  

DLR